Location: Huesca
(42.1318°N, 0.4078°W)
Time: 09:29:04
(UTC+02:00)

Courier 1B - All Passes

Search period start: 15 July 2024 00:00
Search period end: 25 July 2024 00:00
Orbit: 962 x 1209 km, 28.3° (Epoch: 14 July)

Date Brightness Start Highest point End Pass type
(mag) Time Alt. Az. Time Alt. Az. Time Alt. Az.
15 Jul - 15:30:19 10° S 15:32:27 11° SSE 15:34:33 10° SE daylight
15 Jul - 17:20:12 10° SW 17:25:32 22° S 17:30:38 10° ESE daylight
15 Jul - 19:13:10 10° SW 19:18:42 25° S 19:24:01 10° SE daylight
15 Jul - 21:07:32 10° WSW 21:11:44 17° SSW 21:15:49 10° SSE daylight
16 Jul - 16:26:47 10° SSW 16:31:52 20° SSE 16:36:46 10° ESE daylight
16 Jul - 18:19:20 10° SW 18:25:04 26° S 18:30:33 10° SE daylight
16 Jul - 20:13:18 10° WSW 20:18:10 20° SSW 20:22:53 10° SSE daylight
17 Jul - 15:33:33 10° SSW 15:38:12 17° SSE 15:42:42 10° ESE daylight
17 Jul - 17:25:33 10° SW 17:31:23 26° S 17:36:58 10° ESE daylight
17 Jul - 19:19:12 10° WSW 19:24:35 23° S 19:29:44 10° SE daylight
17 Jul - 21:15:01 10° SW 21:17:29 12° SSW 21:19:55 10° S daylight
18 Jul - 14:40:39 10° S 14:44:31 15° SSE 14:48:19 10° SE daylight
18 Jul - 16:31:52 10° SW 16:37:42 25° S 16:43:17 10° ESE daylight
18 Jul - 18:25:12 10° WSW 18:30:56 25° S 18:36:26 10° SE daylight
18 Jul - 20:20:04 10° SW 20:23:58 16° SSW 20:27:45 10° SSE daylight
19 Jul - 13:48:28 10° S 13:50:51 12° SSE 13:53:14 10° SE daylight
19 Jul - 15:38:18 10° SW 15:43:59 23° SSE 15:49:28 10° ESE daylight
19 Jul - 17:31:15 10° WSW 17:37:16 27° S 17:43:00 10° SE daylight
19 Jul - 19:25:36 10° WSW 19:30:23 19° SSW 19:35:00 10° SSE daylight
20 Jul - 14:44:53 10° SSW 14:50:16 21° SSE 14:55:30 10° ESE daylight
20 Jul - 16:37:23 10° SW 16:43:33 27° S 16:49:26 10° SE daylight
20 Jul - 18:31:21 10° WSW 18:36:46 22° SSW 18:41:58 10° SE daylight
20 Jul - 20:28:48 10° SW 20:29:39 10° SSW 20:30:30 10° SSW daylight
21 Jul - 13:51:42 10° SSW 13:56:34 18° SSE 14:01:19 10° ESE daylight
21 Jul - 15:43:36 10° SW 15:49:49 27° S 15:55:47 10° ESE daylight
21 Jul - 17:37:14 10° WSW 17:43:06 25° S 17:48:44 10° SE daylight
21 Jul - 19:32:40 10° SW 19:36:06 14° SSW 19:39:28 10° S daylight
22 Jul - 12:58:55 10° S 13:02:52 15° SSE 13:06:45 10° SE daylight
22 Jul - 14:49:56 10° SW 14:56:03 25° S 15:02:00 10° ESE daylight
22 Jul - 16:43:12 10° WSW 16:49:24 27° S 16:55:20 10° SE daylight
22 Jul - 18:37:55 10° WSW 18:42:32 18° SSW 18:46:59 10° SSE daylight
23 Jul - 12:07:00 10° S 12:09:11 11° SSE 12:11:21 10° SE daylight
23 Jul - 13:56:26 10° SW 14:02:18 23° SSE 14:08:04 10° ESE daylight
23 Jul - 15:49:17 10° WSW 15:55:39 28° S 16:01:48 10° SE daylight
23 Jul - 17:43:31 10° WSW 17:48:53 21° SSW 17:54:04 10° SSE daylight
24 Jul - 13:03:06 10° SSW 13:08:33 21° SSE 13:13:57 10° ESE daylight
24 Jul - 14:55:27 10° SW 15:01:52 28° S 15:08:08 10° ESE daylight
24 Jul - 16:49:18 10° WSW 16:55:12 24° SSW 17:00:54 10° SE daylight
24 Jul - 18:45:32 10° SW 18:48:12 12° SSW 18:50:49 10° S daylight
